Location: Newark
(44.3299°N, 23.7597°E)
Time: 04:03:05
(UTC+00:00)

Envisat - Pass Details

Date: 03 February 2022
Orbit: 764 x 765 km, 98.2° (Epoch: 21 May)

Event Time Altitude Azimuth Distance (km) Brightness Sun altitude
Rises 04:18:55 0° 3° (N) 3,241 6.2 -15.0°
Reaches altitude 10° 04:21:28 10° 353° (N) 2,311 5.3 -14.5°
Maximum altitude 04:25:49 30° 294° (WNW) 1,362 3.8 -13.7°
Drops below altitude 10° 04:30:10 10° 235° (SW) 2,299 5.1 -13.0°
Sets 04:32:42 0° 225° (SW) 3,221 5.9 -12.5°
